Location: Tucson
(32.2217°N, 110.9265°W)
Time: 19:50:10
(UTC-07:00)

Oscar 11 - Visible Passes

Search period start: 29 November 2021 00:00
Search period end: 09 December 2021 00:00
Orbit: 614 x 623 km, 97.6° (Epoch: 29 November)

Date Brightness Start Highest point End Pass type
(mag) Time Alt. Az. Time Alt. Az. Time Alt. Az.
29 Nov 10.1 04:44:18 10° ENE 04:46:51 15° E 04:49:22 10° SE visible
29 Nov 7.7 06:19:05 10° N 06:23:00 34° WNW 06:26:54 10° SW visible
30 Nov 9.4 05:00:16 10° NE 05:03:48 24° E 05:07:18 10° SSE visible
30 Nov 8.2 06:36:24 10° NNW 06:39:44 22° WNW 06:43:03 10° WSW visible
01 Dec 8.5 05:16:39 10° NNE 05:20:42 38° E 05:24:44 10° SSE visible
01 Dec 9.2 17:42:12 10° SSW 17:46:06 32° W 17:50:00 10° NNW visible
02 Dec 7.5 05:33:17 10° NNE 05:37:35 64° E 05:41:51 10° S visible
02 Dec 10.0 17:59:47 10° SW 18:03:01 20° W 18:06:16 10° NW visible
03 Dec 6.9 05:50:05 10° N 05:54:26 78° WNW 05:58:43 10° SSW visible
03 Dec 10.4 18:18:03 10° WSW 18:19:59 13° W 18:21:55 10° WNW visible
04 Dec 10.4 04:33:47 10° ENE 04:34:55 11° E 04:36:03 10° ESE visible
04 Dec 7.3 06:07:04 10° N 06:11:13 47° WNW 06:15:21 10° SSW visible
05 Dec 9.8 04:48:57 10° NE 04:51:54 18° E 04:54:49 10° SE visible
05 Dec 7.8 06:24:14 10° NNW 06:27:59 29° WNW 06:31:42 10° SW visible
06 Dec 9.1 05:05:05 10° NE 05:08:49 28° E 05:12:32 10° SSE visible
06 Dec 8.4 06:41:40 10° NNW 06:44:42 19° WNW 06:47:43 10° WSW visible
07 Dec 8.1 05:21:34 10° NNE 05:25:44 45° E 05:29:51 10° S visible
07 Dec 9.5 17:47:25 10° SSW 17:51:07 28° W 17:54:51 10° NW visible
08 Dec 7.2 05:38:15 10° NNE 05:42:35 76° E 05:46:52 10° S visible
08 Dec 10.1 18:05:09 10° SW 18:08:03 17° W 18:10:58 10° NW visible
